Cloud_Cover
0 5 5 5 5 5 5 5 5 5 25 51 5 1 5 1 5 57 94 100 100 100 100 100 100 92 93 99 100 100 100 100 100 100 76 99 100 89 100 100 90 39 76 74
5 5 5 5 5 5 5 5 5 22 93 74 43 5 5 0 2 0 6 100 100 100 100 100 100 100 100 100 100 100 100 100 100 100 100 99 100 100 100 100 100 100 100 100
5 5 5 19 29 15 5 12 5 58 100 99 100 69 5 0 0 1 5 86 30 96 100 98 100 100 100 100 100 100 100 100 100 100 100 100 100 100 100 100 100 100 100 100
5 5 5 5 19 5 5 33 74 98 100 100 100 95 5 0 2 5 71 100 100 100 100 90 100 100 100 100 100 100 100 100 100 100 100 100 100 100 100 100 100 100 100 100
5 5 5 5 6 42 5 75 71 100 100 100 100 100 5 2 0 5 5 26 90 99 100 100 100 100 100 100 100 100 100 100 100 100 100 100 100 100 100 100 100 100 100 100
5 5 5 5 8 58 5 10 66 100 100 100 100 88 8 5 2 5 5 5 5 10 88 100 100 96 100 100 100 98 100 100 100 100 100 100 100 100 100 100 100 100 100 100
5 5 5 5 5 9 4 35 82 100 100 100 100 100 76 5 3 5 5 5 5 16 96 100 100 100 100 100 100 100 100 98 100 100 100 100 100 100 100 100 100 100 100 100
5 5 5 5 5 5 5 5 93 100 100 100 100 100 100 10 5 5 5 5 5 5 5 98 100 100 100 100 100 100 100 100 100 100 100 100 100 100 100 100 100 100 100 100
5 5 5 5 5 6 5 5 10 100 94 100 100 100 100 89 7 5 5 5 7 18 7 39 98 100 100 100 100 100 100 100 100 100 100 100 100 100 100 100 100 100 100 100
5 5 5 5 30 92 50 21 26 100 86 83 100 100 100 100 100 10 6 10 65 98 62 94 99 100 100 100 100 100 100 100 100 100 100 100 100 100 100 100 100 100 100 100
5 5 45 5 96 100 96 60 68 95 100 66 77 100 100 100 100 100 29 5 5 20 59 100 100 100 99 100 100 100 100 100 100 100 100 100 100 100 100 100 100 100 100 100
5 12 48 83 99 100 100 100 100 100 75 85 100 100 100 100 98 53 99 7 5 5 17 65 72 100 100 100 100 100 100 100 100 100 100 100 100 100 80 100 100 100 100 100
88 42 62 99 24 90 100 100 100 99 90 53 95 93 46 100 100 100 97 26 48 16 5 5 56 98 100 100 100 100 100 100 100 100 100 100 100 100 100 100 100 100 100 100
100 82 100 100 100 97 100 100 100 84 52 42 75 86 99 100 97 78 100 100 100 65 26 5 51 96 92 98 100 100 100 100 100 100 100 100 100 100 100 100 100 98 94 100
99 100 100 100 100 100 100 100 100 99 100 40 99 100 100 100 100 100 98 100 100 100 100 58 90 100 100 95 100 88 100 100 100 100 100 100 100 100 100 100 100 100 100 100
100 89 100 100 100 100 100 100 100 100 100 100 100 100 100 100 100 100 100 100 100 100 99 92 91 100 100 100 100 100 90 100 100 100 100 100 100 100 100 100 100 100 100 100
100 100 100 100 100 100 100 100 100 100 100 100 100 100 100 100 100 100 100 100 97 100 100 94 96 100 100 100 100 100 100 100 88 100 100 100 100 100 100 100 98 89 88 88
100 100 100 100 100 100 100 100 100 100 100 100 100 100 100 100 100 100 100 100 100 100 100 100 100 100 100 100 100 100 100 100 100 100 100 100 100 100 100 100 87 46 35 63
100 100 100 100 100 100 100 100 100 100 100 100 100 99 100 100 100 100 100 100 100 100 100 100 100 100 100 100 100 100 100 100 100 100 90 100 100 100 100 68 100 100 100 100
100 100 100 100 100 100 100 100 100 100 100 100 81 100 100 100 100 100 100 100 100 100 100 100 100 100 100 100 100 100 100 100 100 100 100 100 100 100 100 100 99 100 100 69
100 100 100 100 100 100 100 100 100 100 82 100 100 100 100 100 100 100 100 100 100 100 100 100 100 100 100 100 100 100 96 100 100 100 100 96 98 99 100 100 100 100 100 100
100 100 100 100 100 100 100 94 100 100 100 100 100 100 100 100 100 100 100 100 100 100 100 100 100 100 100 100 100 100 88 100 100 100 99 96 36 5 10 25 30 6 26 56
100 100 100 100 100 100 100 100 100 100 100 100 100 100 100 99 100 100 100 100 100 100 100 100 100 100 100 100 100 100 99 100 100 61 37 14 5 11 8 11 5 5 9 73
100 100 100 100 100 100 100 100 100 100 100 100 100 100 100 100 100 100 100 100 100 100 100 100 100 100 100 100 100 100 100 100 100 100 69 18 5 8 7 18 82 97 100 100
100 100 100 82 96 100 100 100 100 100 100 100 100 100 100 100 100 100 100 100 100 100 100 100 100 100 100 100 99 82 100 100 100 92 37 8 8 73 100 100 100 100 100 100
100 100 100 100 100 100 100 100 100 100 100 100 100 100 100 100 100 100 100 100 100 100 100 100 100 100 100 100 100 100 81 39 19 5 14 54 98 100 100 100 100 100 100 100